Location: Brahman Valley
(40.6513°N, 111.8855°W)
Time: 12:11:12
(UTC+00:00)

Vanguard 2 - Pass Details

Date: 17 May 2021
Orbit: 552 x 2937 km, 32.9° (Epoch: 14 June)

Event Time Altitude Azimuth Distance (km) Brightness Sun altitude
Rises 17:24:22 0° 276° (W) 5,559 11.6 56.9°
Reaches altitude 10° 17:28:02 10° 268° (W) 4,849 11.4 57.5°
Maximum altitude 17:40:48 37° 209° (SSW) 3,792 11.6 59.5°
Drops below altitude 10° 17:56:04 10° 151° (SSE) 5,732 12.6 61.7°
Sets 18:00:57 0° 143° (SE) 6,645 12.7 62.4°
